EW9741 Weather Reports


Display with metric or nautical units.
time (UTC)temp
F
wind
direction
speed
MPH
gust
MPH
rain 1hr
in
rain 24hr
in
rain mn
in
humidity
%
barometer
mb
20260902023014 82 165 0.0 0.0 0.00 0.00 0.00 72 1016.3
20260902021523 82 205 0.0 0.0 0.00 0.00 0.00 72 1016.3
20260902014510 82 186 0.0 0.0 0.00 0.00 0.00 70 1016.2
20260902013009 83 186 0.0 0.0 0.00 0.00 0.00 69 1016.2
20260902011506 83 186 0.0 0.0 0.00 0.00 0.00 68 1016.0
20260902004507 85 184 0.0 0.0 0.00 0.00 0.00 66 1015.8
20260902003001 86 188 0.0 0.0 0.00 0.00 0.00 64 1015.8
20260902001557 87 245 0.0 0.0 0.00 0.00 0.00 62 1015.8
20260901234556 90 198 0.0 0.0 0.00 0.00 0.00 58 1015.9
20260901233051 90 227 0.0 0.0 0.00 0.00 0.00 57 1016.0
20260901231548 92 222 0.0 0.0 0.00 0.00 0.00 55 1016.0
20260901224554 93 164 0.0 0.0 0.00 0.00 0.00 53 1016.0
20260901223040 94 167 0.0 0.0 0.00 0.00 0.00 52 1015.8
20260901221539 94 228 0.0 0.0 0.00 0.00 0.00 51 1015.8
20260901214539 94 195 0.0 0.0 0.00 0.00 0.00 49 1015.8
20260901213032 94 281 0.0 0.0 0.00 0.00 0.00 50 1015.7
20260901211534 94 282 0.0 0.0 0.00 0.00 0.00 48 1015.8
20260901204530 94 137 0.0 1.0 0.00 0.00 0.00 50 1016.0
20260901203029 94 273 0.0 0.0 0.00 0.00 0.00 48 1016.1
20260901201528 94 278 0.0 0.0 0.00 0.00 0.00 49 1016.1
20260901194528 93 236 0.0 0.0 0.00 0.00 0.00 49 1016.3
20260901193027 93 123 0.0 0.0 0.00 0.00 0.00 50 1016.4
20260901191527 93 262 0.0 0.0 0.00 0.00 0.00 49 1016.5
20260901184529 92 154 0.0 6.0 0.00 0.00 0.00 52 1016.9
20260901183020 92 264 0.0 1.0 0.00 0.00 0.00 54 1017.0
20260901181526 91 271 0.0 0.0 0.00 0.00 0.00 54 1017.1
20260901174530 91 200 0.0 0.0 0.00 0.00 0.00 55 1017.3
20260901173024 90 211 0.0 0.0 0.00 0.00 0.00 56 1017.4
20260901171517 90 238 0.0 0.0 0.00 0.00 0.00 57 1017.5
20260901164520 90 287 0.0 10.0 0.00 0.00 0.00 57 1017.6
20260901163017 90 292 0.0 0.0 0.00 0.00 0.00 58 1017.7
20260901161519 89 301 0.0 0.0 0.00 0.00 0.00 60 1017.8
20260901154516 87 120 0.0 6.0 0.00 0.00 0.00 62 1017.9
20260901153015 86 259 0.0 9.0 0.00 0.00 0.00 64 1018.1
20260901151524 86 264 0.0 0.0 0.00 0.00 0.00 64 1018.0
20260901144520 84 287 0.0 0.0 0.00 0.00 0.00 68 1018.0
20260901143017 84 273 0.0 0.0 0.00 0.00 0.00 71 1018.2
20260901141516 82 304 0.0 0.0 0.00 0.00 0.00 74 1018.4
20260901134515 81 269 0.0 0.0 0.00 0.00 0.00 76 1018.1
20260901133019 80 232 0.0 0.0 0.00 0.00 0.00 77 1018.0
20260901131513 79 173 0.0 0.0 0.00 0.00 0.00 78 1018.0
20260901124514 77 219 0.0 0.0 0.00 0.00 0.00 81 1018.4
20260901123022 76 217 0.0 0.0 0.00 0.00 0.00 83 1018.4
20260901121512 75 207 0.0 0.0 0.00 0.00 0.00 85 1018.3
20260901114507 0 0.0 0.0 0.00 0.00 0.00 1017.8
20260901113003 0 0.0 0.0 0.00 0.00 0.00 1017.6
20260901111559 0 0.0 0.0 0.00 0.00 0.00 1017.4
20260901110156 0 0.0 0.0 0.00 0.00 0.00 1017.3
20260901104559 0 0.0 0.0 0.00 0.00 0.00 1017.3
20260901103049 73 211 0.0 0.0 0.00 0.00 0.00 86 1017.2
20260901101549 74 197 0.0 0.0 0.00 0.00 0.00 86 1017.1
20260901100152 73 140 0.0 0.0 0.00 0.00 0.00 86 1016.9
20260901094554 73 219 0.0 0.0 0.00 0.00 0.00 87 1016.9
20260901093102 74 219 0.0 0.0 0.00 0.00 0.00 86 1016.8
20260901091558 73 204 0.0 0.0 0.00 0.00 0.00 87 1016.8
20260901090150 73 204 0.0 0.0 0.00 0.00 0.00 87 1016.6
20260901084548 73 204 0.0 0.0 0.00 0.00 0.00 88 1016.5
20260901083047 73 204 0.0 0.0 0.00 0.00 0.00 88 1016.4
20260901081546 73 204 0.0 0.0 0.00 0.00 0.00 88 1016.5
20260901080145 74 204 0.0 0.0 0.00 0.00 0.00 86 1016.4
20260901074542 74 204 0.0 0.0 0.00 0.00 0.00 85 1016.3
20260901073047 75 204 0.0 0.0 0.00 0.00 0.00 85 1016.2
20260901071542 75 204 0.0 0.0 0.00 0.00 0.00 85 1016.2
20260901070139 76 204 0.0 0.0 0.00 0.00 0.00 84 1016.1
20260901064544 76 153 0.0 0.0 0.00 0.00 0.00 84 1015.9
20260901063039 76 197 0.0 0.0 0.00 0.00 0.00 84 1015.8
20260901061537 76 197 0.0 0.0 0.00 0.00 0.00 84 1015.9
20260901060138 77 207 0.0 0.0 0.00 0.00 0.00 83 1016.3
20260901054535 77 207 0.0 0.0 0.00 0.00 0.00 83 1016.4
20260901053033 77 203 0.0 0.0 0.00 0.00 0.00 82 1016.6
20260901051531 78 161 0.0 0.0 0.00 0.00 0.00 81 1016.6
20260901050131 78 203 0.0 0.0 0.00 0.00 0.00 80 1016.7
20260901044533 78 179 0.0 0.0 0.00 0.00 0.00 80 1016.8
20260901043029 79 213 0.0 0.0 0.00 0.00 0.00 79 1016.9
20260901041528 79 130 0.0 0.0 0.00 0.00 0.00 78 1017.0
20260901040128 79 160 0.0 0.0 0.00 0.00 0.00 78 1017.0
20260901034527 79 165 0.0 0.0 0.00 0.00 0.00 78 1017.0
20260901033027 79 147 0.0 0.0 0.00 0.00 0.00 78 1017.1
20260901031527 79 204 0.0 0.0 0.00 0.00 0.00 79 1017.2
20260901030127 79 204 0.0 0.0 0.00 0.00 0.00 79 1017.2
20260901024530 79 204 0.0 0.0 0.00 0.00 0.00 79 1017.2